Weather History for Laramie, WY

Change the Weather History Date:

Saturday, December 8, 2012

  Actual Average Record
Temperature  
Mean Temperature 18 °F 21 °F  
Max Temperature 28 °F 32 °F 55 °F (1981)
Min Temperature 8 °F 10 °F -28 °F (1978)
Degree Days  
Heating Degree Days 47 44  
Month to date heating degree days 242 344  
Since 1 July heating degree days 2109 2656  
Cooling Degree Days 0 0  
Month to date cooling degree days 0 0  
Year to date cooling degree days 211 67  
Moisture  
Dew Point 15 °F    
Average Humidity 70    
Maximum Humidity 88    
Minimum Humidity 51    
Precipitation  
Precipitation T in 0.01 in 0.21 in (1997)
Month to date precipitation T 0.09  
Year to date precipitation 6.06 10.69  
Sea Level Pressure  
Sea Level Pressure 29.74 in    
Wind  
Wind Speed 19 mph (WNW)    
Max Wind Speed 36 mph    
Max Gust Speed 43 mph    
Visibility 6 miles    
Events Fog , Snow    
T = Trace of Precipitation, MM = Missing Value Source: NWS Daily Summary

Daily Weather History Graph

Daily Weather History Graph

Search for Another Location

Airport:

Trip Planner

Search our weather history database for the weather conditions in past years. The results will help you decide how hot, cold, wet, or windy it might be!

Date:

Astronomy

Dec. 08, 2012 Rise Set
Actual Time 7:16 AM MST 4:33 PM MST
Civil Twilight 6:45 AM MST 5:04 PM MST
Nautical Twilight 6:10 AM MST 5:39 PM MST
Astronomical Twilight 5:37 AM MST 6:12 PM MST
Moon 1:41 AM MST (12/8) 1:07 PM MST (12/8)
Length of Visible Light 10h 19m
Length of Day
9h 16m
Waning Crescent, 27% of the Moon is Illuminated
Dec 8
Waning Crescent
Dec 13
New
Dec 19
First Quarter
Dec 28
Full
Jan 4
Last Quarter

Hourly Weather History & Observations

Time (MST) Temp. Windchill Dew Point Humidity Pressure Visibility Wind Dir Wind Speed Gust Speed Precip Events Conditions
12:53 AM 26.1 °F 12.3 °F 15.1 °F 63% 29.78 in 10.0 mi SW 19.6 mph 27.6 mph N/A   Overcast
1:53 AM 25.0 °F 14.2 °F 15.1 °F 66% 29.79 in 10.0 mi SW 11.5 mph - N/A   Overcast
2:53 AM 26.1 °F 15.6 °F 15.1 °F 63% 29.75 in 10.0 mi SSW 11.5 mph - N/A   Overcast
4:53 AM 27.0 °F 14.7 °F 14.0 °F 58% 29.70 in 10.0 mi SW 16.1 mph - N/A   Overcast
5:53 AM 27.0 °F 12.5 °F 12.9 °F 56% 29.70 in 10.0 mi SW 23.0 mph - N/A   Overcast
6:53 AM 27.0 °F 12.8 °F 16.0 °F 63% 29.71 in 10.0 mi WSW 21.9 mph 31.1 mph N/A   Mostly Cloudy
7:53 AM 27.0 °F 12.8 °F 17.1 °F 66% 29.69 in 10.0 mi WSW 21.9 mph 33.4 mph N/A   Mostly Cloudy
8:53 AM 28.0 °F 13.0 °F 19.0 °F 69% 29.69 in 10.0 mi WSW 26.5 mph 32.2 mph N/A   Overcast
9:27 AM 26.6 °F 15.2 °F 21.2 °F 80% 29.67 in 1.8 mi WSW 13.8 mph - 0.00 in Snow Light Snow
9:38 AM 26.6 °F 16.8 °F 23.0 °F 86% 29.67 in 0.5 mi West 10.4 mph - 0.00 in Fog , Snow Snow
9:49 AM 26.6 °F 15.7 °F 23.0 °F 86% 29.67 in 1.0 mi NNW 12.7 mph - 0.00 in Snow Light Snow
9:53 AM 24.1 °F 10.6 °F 21.9 °F 91% 29.76 in 0.5 mi NW 17.3 mph 20.7 mph 0.00 in Fog , Snow Snow
10:01 AM 23.0 °F 6.9 °F 21.2 °F 93% 29.67 in 0.2 mi WNW 24.2 mph 33.4 mph 0.00 in Fog , Snow Heavy Snow
10:21 AM 24.8 °F 11.5 °F 21.2 °F 86% 29.68 in 0.8 mi NW 17.3 mph - 0.00 in Snow Light Snow
10:28 AM 24.8 °F 11.9 °F 21.2 °F 86% 29.67 in 2.0 mi NW 16.1 mph - 0.00 in Snow Light Snow
10:30 AM 24.8 °F 12.4 °F 21.2 °F 86% 29.67 in 4.0 mi NW 15.0 mph - 0.00 in Snow Light Snow
10:53 AM 25.0 °F 13.6 °F 21.0 °F 85% 29.74 in 4.0 mi NW 12.7 mph - 0.00 in Snow Light Snow
11:09 AM 24.8 °F 14.0 °F 21.2 °F 86% 29.67 in 2.5 mi WNW 11.5 mph - 0.00 in Snow Light Snow
11:17 AM 24.8 °F 13.4 °F 21.2 °F 86% 29.66 in 1.0 mi NW 12.7 mph - 0.00 in Snow Light Snow
11:53 AM 24.1 °F 11.5 °F 21.0 °F 88% 29.69 in 1.2 mi WNW 15.0 mph - 0.00 in Snow Light Snow
12:07 PM 23.0 °F 8.3 °F 19.4 °F 86% 29.65 in 0.5 mi West 19.6 mph - 0.00 in Fog , Snow Snow
12:16 PM 23.0 °F 10.1 °F 21.2 °F 93% 29.65 in 0.5 mi West 15.0 mph - 0.00 in Fog , Snow Snow
12:30 PM 24.8 °F 10.0 °F 21.2 °F 86% 29.63 in 0.8 mi West 21.9 mph - 0.00 in Snow Light Snow
12:35 PM 24.8 °F 10.3 °F 21.2 °F 86% 29.64 in 1.0 mi West 20.7 mph - 0.00 in Snow Light Snow
12:47 PM 24.8 °F 10.3 °F 19.4 °F 80% 29.63 in 3.0 mi West 20.7 mph - 0.00 in Snow Light Snow
12:53 PM 24.1 °F 8.0 °F 19.0 °F 81% 29.68 in 9.0 mi West 25.3 mph 29.9 mph 0.00 in   Overcast
1:02 PM 24.8 °F 9.3 °F 17.6 °F 74% 29.63 in 10.0 mi West 24.2 mph 32.2 mph N/A   Mostly Cloudy
1:53 PM 24.1 °F 8.0 °F 15.1 °F 69% 29.68 in 10.0 mi WNW 25.3 mph 31.1 mph N/A   Overcast
2:53 PM 21.9 °F 5.5 °F 17.1 °F 82% 29.71 in 10.0 mi NW 24.2 mph 32.2 mph N/A   Overcast
3:06 PM 19.4 °F -0.8 °F 15.8 °F 86% 29.67 in 1.8 mi NW 35.7 mph 42.6 mph 0.00 in   Overcast
3:17 PM 19.4 °F 0.5 °F 15.8 °F 86% 29.68 in 0.8 mi NW 29.9 mph 42.6 mph 0.00 in Snow Light Snow
3:21 PM 19.4 °F 0.8 °F 15.8 °F 86% 29.68 in 1.0 mi NW 28.8 mph 42.6 mph 0.00 in Snow Light Snow
3:27 PM 17.6 °F -1.3 °F 15.8 °F 93% 29.69 in 2.0 mi NW 27.6 mph 36.8 mph 0.00 in Snow Light Snow
3:36 PM 17.6 °F -1.6 °F 14.0 °F 86% 29.69 in 8.0 mi NW 28.8 mph 35.7 mph 0.00 in   Overcast
3:53 PM 17.1 °F -2.4 °F 12.0 °F 81% 29.76 in 8.0 mi NW 28.8 mph 39.1 mph 0.00 in   Overcast
4:53 PM 17.1 °F -0.3 °F 3.9 °F 56% 29.81 in 10.0 mi WNW 21.9 mph - N/A   Mostly Cloudy
5:53 PM 16.0 °F -1.7 °F -0.9 °F 47% 29.85 in 10.0 mi WNW 21.9 mph 31.1 mph N/A   Overcast
6:53 PM 15.1 °F -2.5 °F -0.0 °F 51% 29.90 in 10.0 mi WNW 20.7 mph - N/A   Overcast
7:53 PM 12.9 °F -2.2 °F 1.0 °F 59% 29.94 in 10.0 mi WNW 13.8 mph - N/A   Mostly Cloudy
8:53 PM 12.9 °F -3.9 °F 1.0 °F 59% 29.94 in 10.0 mi WNW 17.3 mph - N/A   Overcast
9:53 PM 10.9 °F -5.4 °F 1.9 °F 67% 29.99 in 10.0 mi West 15.0 mph - N/A   Mostly Cloudy
10:20 PM 12.2 °F -1.8 °F 1.4 °F 62% 29.85 in 10.0 mi WNW 11.5 mph - N/A   Mostly Cloudy
10:31 PM 10.4 °F -3.3 °F 1.4 °F 67% 29.85 in 10.0 mi WNW 10.4 mph - N/A   Scattered Clouds
10:53 PM 10.0 °F -2.9 °F 1.0 °F 67% 29.99 in 10.0 mi WNW 9.2 mph - N/A   Partly Cloudy
11:53 PM 8.1 °F -7.0 °F -0.0 °F 70% 30.01 in 10.0 mi WNW 11.5 mph - N/A   Partly Cloudy